Location: Poznań
(52.4062°N, 16.9234°E)
Time: 05:47:42
(UTC+01:00)

ISS - Pass Details

Date: 30 January 2019
Orbit: 403 x 411 km, 51.6° (Epoch: 17 February)

Event Time Altitude Azimuth Distance (km) Brightness Sun altitude
Rises 17:25:13 0° 245° (WSW) 2,329 2.4 -7.9°
Reaches altitude 10° 17:27:19 10° 241° (WSW) 1,471 0.6 -8.2°
Maximum altitude 17:30:33 55° 163° (SSE) 500 -3.4 -8.7°
Enters shadow 17:33:26 13° 86° (E) 1,337 -1.8 -9.1°
